Probability
0 0 0 0 0 0 0 0 0 0 0 0 0 0 0 0 0 0 0 0 0 0 0 0 0 0 0 0 0 0 0 0 0 0 0 0 0 0
0 0 0 0 0 0 0 0 0 0 0 0 0 0 0 0 0 0 0 0 0 0 0 0 0 0 0 0 0 0 0 0 0 0 0 0 0 0
0 0 0 0 0 0 0 0 0 0 0 0 0 0 0 0 0 0 0 0 0 0 0 0 0 0 0 0 0 0 0 0 0 0 0 0 0 0
0 0 0 0 0 0 0 0 0 0 0 0 0 0 0 0 0 0 0 0 0 0 0 0 0 0 0 0 0 0 0 0 0 0 0 0 0 0
0 0 0 0 0 0 0 0 0 0 0 0 0 0 0 0 0 0 0 0 0 0 0 0 0 0 0 0 0 0 0 0 0 0 0 0 0 0
0 0 0 0 0 0 0 0 0 0 0 0 0 0 0 0 0 0 0 0 0 0 0 0 0 0 0 0 0 0 0 0 0 0 0 0 0 0
0 0 0 0 0 0 0 0 0 0 0 0 0 0 0 0 0 0 0 0 0 0 0 0 0 0 0 0 0 0 0 0 0 0 0 0 0 0
0 0 0 0 0 0 0 0 0 0 0 0 0 0 0 0 0 0 0 0 0 0 0 0 0 0 0 0 0 0 0 0 0 0 0 0 0 0
0 0 0 0 0 0 0 0 0 0 0 0 0 0 0 0 0 0 0 0 0 0 0 0 0 0 0 0 0 0 0 0 0 0 0 0 0 0
0 0 0 0 0 0 0 0 0 0 0 0 0 0 0 0 0 0 0 0 0 0 0 0 0 0 0 0 0 0 0 0 0 0 0 0 0 0
0 0 0 0 0 0 0 0 0 0 0 0 0 0 0 0 0 0 0 0 0 0 0 0 0 0 0 0 0 0 0 0 0 0 0 0 0 0
0 0 0 0 0 0 0 0 0 0 0 0 0 0 0 0 0 0 0 0 0 0 0 0 0 0 0 0 0 0 0 0 0 0 0 0 0 0
0 0 0 0 0 0 0 0 0 0 0 0 0 0 0 0 0 0 0 0 0 0 0 0 0 0 0 0 0 0 0 0 0 0 0 0 0 0
0 0 0 0 0 0 0 0 0 0 0 0 0 0 0 0 0 0 0 0 0 0 0 0 0 0 0 0 0 0 0 0 0 0 0 0 0 0
0 0 0 0 0 0 0 0 0 0 0 0 0 0 0 0 0 0 0 0 0 0 0 0 0 0 0 0 0 0 0 0 0 0 0 0 0 0
0 0 0 0 0 0 0 0 0 0 0 0 0 0 0 0 0 0 0 0 0 0 0 0 0 0 0 0 0 0 0 0 0 0 0 0 0 0
0 0 0 0 0 0 0 0 0 0 0 0 0 0 0 0 0 0 0 0 0 0 0 0 0 0 0 0 0 0 0 0 0 0 0 0 0 0
0 0 0 0 0 0 0 0 0 0 0 0 0 0 0 0 0 0 0 0 0 0 0 0 0 0 0 0 0 0 0 0 0 0 0 0 0 0
0 0 0 0 0 0 0 0 0 0 0 0 0 0 0 0 0 0 0 0 0 0 0 0 0 0 0 0 0 0 0 0 0 0 0 0 0 0
0 0 0 0 0 0 0 0 0 0 0 0 0 0 0 0 0 0 0 0 0 0 0 0 0 0 0 0 0 0 0 0 0 0 0 0 0 0
0 0 0 0 0 0 0 0 0 0 0 0 0 0 0 0 0 0 0 0 0 0 0 0 0 0 0 0 0 0 0 0 0 0 0 0 0 0
0 0 0 0 0 0 0 0 0 0 0 0 0 0 0 0 0 0 0 0 0 0 0 0 0 0 0 0 0 0 0 0 0 0 0 0 0 0
0 0 0 0 0 0 0 0 0 0 0 0 0 0 0 0 0 0 0 0 0 0 0 0 0 0 0 0 0 0 0 0 0 0 0 0 0 0
Wind_Speed
3 3 3 3 3 3 3 3 3 5 5 4 3 3 3 2 4 4 4 8 10 10 10 11 11 12 12 13 13 13 13 13 11 10 11 12 12 12
3 3 3 3 3 3 3 3 3 4 6 3 3 3 4 4 6 4 4 9 9 10 11 11 11 12 12 12 12 13 12 11 11 10 11 11 12 11
3 3 4 3 3 3 3 3 3 3 6 5 3 3 4 5 5 4 4 4 4 9 11 11 12 12 12 10 10 10 10 11 11 10 10 11 11 10
3 3 4 3 3 3 3 3 3 3 4 6 4 3 5 5 5 5 5 5 4 8 10 10 11 10 9 9 9 9 9 10 10 10 10 10 10 10
3 3 4 3 4 3 3 3 3 3 3 4 5 4 4 4 4 4 5 4 5 6 8 9 10 10 9 9 9 9 8 9 10 9 9 9 9 10
3 3 4 4 4 4 3 4 3 3 3 3 4 3 3 3 3 4 4 3 4 4 5 6 8 9 9 9 8 8 8 8 8 8 8 8 8 8
3 3 3 4 5 4 4 3 3 2 3 3 3 3 4 3 3 3 4 4 4 3 3 4 4 4 5 6 7 7 7 7 7 6 7 7 6 6
3 3 3 4 5 6 7 6 5 4 4 4 4 4 5 4 3 3 3 4 4 2 3 4 3 3 3 3 5 6 5 6 6 5 5 5 5 5
3 3 3 3 4 3 4 5 5 7 7 5 5 5 5 4 4 4 4 4 4 3 3 4 3 4 4 4 6 5 5 5 6 5 4 3 3 3
3 3 3 3 4 3 3 3 3 4 5 4 4 4 4 4 4 4 4 4 3 2 2 3 3 3 4 3 6 5 5 5 5 5 4 3 2 3
3 3 3 3 5 5 3 3 3 3 4 5 5 5 6 7 5 3 3 3 4 3 2 2 3 4 3 3 3 4 5 6 6 5 5 3 2 2
3 3 4 4 5 5 3 2 3 3 3 3 3 4 4 4 5 3 2 2 3 3 2 2 2 2 3 2 2 3 3 5 6 5 5 4 3 1
2 2 2 6 6 5 4 3 3 3 2 2 2 2 2 2 2 2 2 2 2 2 2 2 2 2 2 3 3 2 2 3 3 4 5 5 3 1
2 2 3 6 6 5 4 4 4 3 1 1 1 1 2 2 2 2 2 2 2 3 3 2 1 2 2 3 3 3 3 2 2 3 2 4 3 3
3 5 6 6 5 3 4 4 2 1 1 1 1 2 2 2 2 2 2 2 2 2 2 2 2 2 1 2 2 3 3 3 3 3 3 3 2 2
3 4 6 5 3 4 3 2 1 1 1 1 1 1 2 2 2 2 2 2 2 3 3 3 3 1 1 2 2 2 3 2 3 3 3 3 3 2
3 2 1 2 2 2 1 1 1 1 1 1 1 1 1 2 2 2 2 2 2 2 3 3 3 2 2 2 1 2 2 2 2 3 2 3 3 2
3 1 1 1 2 2 2 2 2 2 2 1 1 1 1 2 2 2 2 2 2 2 2 3 3 2 2 3 3 2 2 2 2 3 2 2 3 3
2 1 1 1 1 1 1 2 2 2 1 1 1 1 1 1 1 2 2 2 2 2 2 3 3 2 2 3 4 4 2 2 2 3 3 2 2 3
1 1 1 1 1 1 1 1 1 1 1 1 1 1 1 1 1 1 1 2 2 2 2 3 2 2 1 1 2 3 5 2 2 2 2 2 2 3
2 1 1 1 1 1 1 1 1 1 1 1 1 1 1 1 1 1 1 2 2 2 2 3 3 3 2 1 1 2 3 5 3 1 2 2 2 3
2 2 1 1 1 1 1 1 1 1 1 1 1 1 1 1 1 1 1 1 1 1 2 2 3 2 2 1 1 2 3 4 5 6 5 3 1 1
2 2 2 1 1 1 1 1 1 1 1 1 1 1 1 1 1 1 1 1 1 1 1 2 2 2 2 1 1 2 3 3 3 3 4 5 4 2
Wind_Direction
247 255 260 260 259 264 264 254 256 282 286 270 276 272 272 269 281 285 281 285 292 287 281 280 281 281 282 284 285 283 280 280 276 266 268 265 263 264
249 254 262 266 263 257 261 266 256 257 275 278 284 294 294 293 292 292 287 300 299 297 287 282 280 278 277 281 282 281 278 277 274 265 265 268 264 264
259 258 261 265 265 268 267 268 267 259 269 284 282 287 291 288 291 288 285 281 285 295 295 286 283 279 276 275 279 276 278 279 275 269 268 271 271 266
262 262 264 268 266 264 262 264 268 265 262 278 288 288 283 282 285 286 292 293 286 295 298 299 296 291 283 278 280 275 278 279 274 272 269 268 271 270
258 257 263 263 265 265 266 264 268 275 266 271 283 287 290 295 297 294 289 291 293 297 298 299 299 299 291 286 284 280 281 282 276 274 266 265 266 271
265 260 258 255 259 261 265 262 263 268 270 273 278 287 288 292 291 292 296 295 294 301 302 305 304 302 296 292 292 292 291 287 280 274 267 263 265 265
281 273 274 280 277 272 273 269 260 261 270 272 278 290 291 300 293 289 292 299 291 296 304 305 304 301 299 294 297 302 300 293 286 282 272 265 262 261
284 280 279 281 286 289 290 284 271 260 265 269 278 280 283 285 292 295 300 305 300 304 312 306 308 301 299 301 312 310 313 309 293 284 285 273 257 259
281 280 288 291 290 270 290 297 284 278 269 263 268 274 281 288 293 295 293 293 290 295 308 304 311 308 309 320 332 320 321 321 318 299 290 286 273 264
287 279 277 282 289 291 288 288 281 277 275 272 269 279 288 290 278 276 281 293 302 300 301 291 305 308 313 313 326 326 330 332 333 331 314 287 273 270
292 287 282 275 295 302 291 285 289 293 306 308 305 310 314 313 313 308 305 303 307 312 325 303 303 310 309 306 318 340 342 342 339 339 339 337 308 279
303 295 291 291 296 293 272 264 277 288 304 315 319 321 314 315 322 307 289 291 304 304 317 327 313 330 320 319 339 351 357 355 352 349 350 351 341 297
304 305 298 303 299 293 290 267 281 296 288 294 305 319 323 324 326 324 315 287 287 289 306 331 325 327 305 312 333 348 350 350 358 360 0 4 0 10
292 295 302 313 311 299 291 308 320 324 310 318 327 330 324 325 325 327 332 326 308 288 295 307 292 298 308 314 317 333 345 347 359 1 4 6 6 8
305 313 318 322 319 309 310 319 320 315 324 323 312 313 314 313 322 335 344 343 345 338 333 327 305 299 304 296 304 320 331 352 6 13 14 13 0 360
317 315 318 328 331 332 336 328 313 308 306 296 310 324 336 338 337 340 338 342 354 355 1 7 0 344 321 321 317 329 338 339 356 7 10 11 8 13
325 320 325 338 348 348 342 347 343 340 341 337 346 350 348 345 345 351 352 356 9 7 7 6 9 16 18 355 339 342 348 352 346 349 10 17 11 15
336 326 329 335 339 344 349 353 356 352 344 346 354 349 346 348 352 358 5 7 5 359 356 347 348 351 9 24 9 337 354 353 354 1 15 29 11 9
347 317 312 322 335 335 338 338 336 334 336 342 350 358 354 352 357 3 8 6 357 355 355 353 354 3 17 6 357 7 3 356 10 19 21 31 19 10
333 316 323 321 333 335 331 330 335 336 340 350 1 6 358 359 4 1 2 359 352 356 1 3 3 360 354 323 319 343 6 8 7 9 11 22 25 15
330 331 330 331 331 334 331 325 321 320 337 358 6 1 0 14 3 354 359 1 3 5 2 351 339 343 332 2 19 1 12 23 25 2 342 4 13 17
333 337 335 336 326 326 327 323 323 326 347 13 4 348 347 2 357 350 356 5 6 5 354 342 343 0 20 44 29 4 5 14 24 28 29 37 50 26
337 338 333 330 334 332 332 335 330 325 349 14 10 344 340 356 9 7 10 17 27 25 15 4 4 18 18 26 29 21 15 8 17 30 29 29 46 24